Muskegon, MI

5:51 PM EST on January 22, 2018 (GMT -0500)
Muskegon County

Weather History for KMKG - February, 2014

Change the Weather History Date:

Wednesday, February 12, 2014

  Actual Average Record
Temperature  
Mean Temperature 10 °F 26 °F  
Max Temperature 21 °F 32 °F 52 °F (1984)
Min Temperature -2 °F 21 °F -29 °F (1899)
Degree Days  
Heating Degree Days 55 39  
Month to date heating degree days 603 472  
Since 1 July heating degree days 4446 4144  
Cooling Degree Days 0 0  
Month to date cooling degree days 0 0  
Year to date cooling degree days 0 0  
Moisture  
Dew Point 3 °F    
Average Humidity 71    
Maximum Humidity 86    
Minimum Humidity 56    
Precipitation  
Precipitation T in 0.06 in 0.60 in (1924)
Month to date precipitation 0.70 0.71  
Year to date precipitation 4.02 2.74  
Snow  
Snow T in 0.70 in 3.90 in (1969)
Month to date snowfall 14.2 9.2  
Since 1 July snowfall 110.7 72.3  
Snow Depth 23.00 in    
Sea Level Pressure  
Sea Level Pressure 30.26 in    
Wind  
Wind Speed 8 mph (SSE)    
Max Wind Speed 14 mph    
Max Gust Speed 17 mph    
Visibility 9 miles    
Events Snow    
T = Trace of Precipitation, MM = Missing Value Source: NWS Daily Summary

Daily Weather History Graph

Daily Weather History Graph

Search for Another Location

Airport or City:

Trip Planner

Search our weather history database for the weather conditions in past years. The results will help you decide how hot, cold, wet, or windy it might be!

Date:

Astronomy

Feb. 12, 2014 Rise Set
Actual Time 7:46 AM EST 6:12 PM EST
Civil Twilight 7:17 AM EST 6:41 PM EST
Nautical Twilight 6:44 AM EST 7:14 PM EST
Astronomical Twilight 6:11 AM EST 7:48 PM EST
Moon 4:24 PM EST (2/12) 6:04 AM EST (2/12)
Length of Visible Light 11h 24m
Length of Day
10h 25m
Waxing Gibbous, 95% of the Moon is Illuminated
Feb 12
Waxing Gibbous
Feb 14
Full
Feb 22
Last Quarter
Mar 1
New
Mar 8
First Quarter

Hourly Weather History & Observations

Time (EST) Temp. Windchill Dew Point Humidity Pressure Visibility Wind Dir Wind Speed Gust Speed Precip Events Conditions
12:55 AM 3.9 °F -8.2 °F -2.0 °F 76% 30.43 in 10.0 mi SSE 6.9 mph - N/A   Clear
1:55 AM 5.0 °F -8.1 °F -2.0 °F 73% 30.42 in 10.0 mi South 8.1 mph - N/A   Clear
2:55 AM 5.0 °F -10.8 °F -0.9 °F 76% 30.42 in 10.0 mi South 11.5 mph - N/A   Clear
3:55 AM -2.0 °F -17.7 °F -7.1 °F 79% 30.39 in 10.0 mi SE 9.2 mph - N/A   Clear
4:55 AM -0.9 °F -16.4 °F -6.0 °F 79% 30.38 in 9.0 mi SE 9.2 mph - N/A   Clear
5:55 AM -2.0 °F -16.6 °F -6.0 °F 83% 30.38 in 8.0 mi SE 8.1 mph - N/A   Scattered Clouds
6:55 AM -0.9 °F -15.3 °F -6.0 °F 79% 30.37 in 6.0 mi SE 8.1 mph - N/A   Haze
7:55 AM 1.0 °F -12.9 °F -5.1 °F 75% 30.35 in 6.0 mi SE 8.1 mph - N/A   Haze
8:55 AM 3.0 °F -9.3 °F -2.0 °F 80% 30.35 in 6.0 mi SE 6.9 mph - N/A   Haze
9:55 AM 6.1 °F -5.6 °F -0.9 °F 73% 30.32 in 8.0 mi SSE 6.9 mph - N/A   Overcast
10:55 AM 9.0 °F -4.2 °F 1.0 °F 70% 30.31 in 8.0 mi SSE 9.2 mph - N/A   Overcast
11:55 AM 10.9 °F -0.8 °F 3.0 °F 70% 30.29 in 8.0 mi ESE 8.1 mph - N/A   Overcast
12:55 PM 16.0 °F 3.6 °F 3.9 °F 59% 30.25 in 10.0 mi South 10.4 mph - N/A   Overcast
1:55 PM 17.1 °F 5.8 °F 5.0 °F 59% 30.20 in 10.0 mi South 9.2 mph - N/A   Mostly Cloudy
2:55 PM 18.0 °F 8.7 °F 8.1 °F 65% 30.17 in 10.0 mi South 6.9 mph - N/A   Mostly Cloudy
3:55 PM 19.0 °F 9.0 °F 10.0 °F 68% 30.16 in 10.0 mi South 8.1 mph - N/A   Overcast
4:55 PM 19.0 °F 6.8 °F 10.0 °F 68% 30.15 in 10.0 mi South 11.5 mph - N/A   Overcast
5:55 PM 19.0 °F 9.0 °F 10.9 °F 71% 30.15 in 2.5 mi South 8.1 mph - 0.00 in Snow Light Snow
6:13 PM 19.0 °F 10.0 °F 10.9 °F 71% 30.11 in 4.0 mi South 6.9 mph - 0.00 in Snow Light Snow
6:55 PM 19.0 °F 11.1 °F 10.9 °F 71% 30.16 in 10.0 mi South 5.8 mph - 0.00 in   Overcast
7:55 PM 19.9 °F 11.1 °F 10.0 °F 65% 30.14 in 10.0 mi South 6.9 mph - N/A   Overcast
8:55 PM 21.0 °F 11.4 °F 10.9 °F 65% 30.13 in 10.0 mi South 8.1 mph - N/A   Overcast
9:55 PM 21.0 °F 12.4 °F 10.9 °F 65% 30.11 in 10.0 mi SSE 6.9 mph - N/A   Overcast
10:55 PM 21.0 °F 14.6 °F 8.1 °F 57% 30.09 in 10.0 mi SSE 4.6 mph - N/A   Overcast
11:55 PM 21.0 °F 14.6 °F 8.1 °F 57% 30.07 in 10.0 mi South 4.6 mph - N/A   Overcast